Regional Weather Roundup
Issued by NWS

Home | Current Version | Previous Version | Text Only | Print | Product List | Glossary On
Versions: 1 2 3 4 5 6 7 8 9 10 11 12 13 14 15 16 17 18 19 20 21 22 23 24 25 26 27 28 29 30 31 32 33 34 35 36 37 38 39 40 41 42 43 44 45 46 47 48 49 50
000
ASUS43 KDMX 250607
RWRIA

WEATHER ROUNDUP FOR IOWA
NATIONAL WEATHER SERVICE DES MOINES IA
1200 AM CST THU DEC 25 2014

NOTE: "FAIR" INDICATES FEW OR NO CLOUDS BELOW 12,000 FEET WITH NO
SIGNIFICANT WEATHER AND/OR OBSTRUCTIONS TO VISIBILITY.

* - THESE STATIONS ARE NOT NWS STATIONS...THUS NOT UNDER NWS
QUALITY CONTROL.  THEY ALSO DO NOT REPORT WEATHER SUCH
AS PRECIPITATION OR FOG.

IAZ001>003-012>014-020>022-031>034-043>046-250700-
   NORTHWEST IOWA

CITY           SKY/WX    TMP DP  RH WIND       PRES   REMARKS
CARROLL *      CLOUDY    30  28  93 S13       29.67F WCI  20
CHEROKEE *     CLOUDY    29  29 100 S10       29.62F WCI  20
DENISON *      CLEAR     28  28 100 S12       29.64F WCI  18
LE MARS *      CLEAR     28  27  93 S13       29.60F WCI  18
ORANGE CITY *  CLOUDY    28  27  93 S10       29.59F WCI  19
SHELDON *      CLOUDY    28  28 100 S14       29.59F WCI  17
SIOUX CITY     CLEAR     28  25  88 SE9       29.61F WCI  19
6HR MIN TEMP:  27; 6HR MAX TEMP:  30;

SPENCER        CLOUDY    28  25  88 S13       29.62F WCI  17
6HR MIN TEMP:  27; 6HR MAX TEMP:  28;

STORM LAKE *   CLOUDY    28  28 100 S13       29.63F FOG     WCI  18
$$

IAZ055>058-069>071-079>083-090>094-250700-
   SOUTHWEST IOWA

CITY           SKY/WX    TMP DP  RH WIND       PRES   REMARKS
ATLANTIC *     MOCLDY    30  28  93 S13       29.69F WCI  20
AUDUBON *      CLOUDY    30  25  80 S10       29.69S HAZE    WCI  21
CLARINDA *     PTCLDY    30  28  93 S9        29.75F WCI  22
COUNCIL BLFS * CLEAR     28  28 100 S12       29.66F WCI  18
CRESTON *      CLOUDY    30  30 100 SW13      29.72F WCI  20
HARLAN  *      CLOUDY    30  30 100 S9G16     29.71S WCI  22
LAMONI         CLOUDY    31  28  89 SW10      29.76F WCI  22
6HR MIN TEMP:  31; 6HR MAX TEMP:  32;

RED OAK *      CLEAR     30  28  93 S10       29.71F WCI  21
SHENANDOAH *   CLEAR     30  28  93 S9        29.72F WCI  22
$$

IAZ047>049-059>061-072>074-084-250700-
   CENTRAL IOWA

CITY           SKY/WX    TMP DP  RH WIND       PRES   REMARKS
AMES           CLOUDY    30  26  85 SW10      29.71F WCI  21
6HR MIN TEMP:  30; 6HR MAX TEMP:  32;

ANKENY *       CLOUDY    30  28  93 SW7       29.73F WCI  23
CHARITON *     CLOUDY    32  28  86 SW14      29.75F WCI  22
DES MOINES     CLOUDY    32  27  81 SW16      29.74S WCI  21
6HR MIN TEMP:  32; 6HR MAX TEMP:  34; 6HR PCP: TRACE;

GRINNELL*      CLOUDY    30  28  93 SW12      29.73S WCI  21
KNOXVILLE *    CLOUDY    32  28  86 SW9G16    29.74S WCI  24
MARSHALLTOWN   CLOUDY    30  28  92 SW15      29.70S WCI  19
6HR MIN TEMP:  30; 6HR MAX TEMP:  33; 6HR PCP: TRACE;

PELLA *        CLOUDY    32  29  90 W10       29.77R WCI  23
PERRY *        CLOUDY    30  30 100 SW10      29.72R WCI  21
$$

IAZ004>006-015-016-023>025-035-036-250700-
   NORTH CENTRAL IOWA

CITY           SKY/WX    TMP DP  RH WIND       PRES   REMARKS
ALGONA *       CLOUDY    27  27 100 SW14      29.65F WCI  15
CLARION *      CLOUDY    28  28 100 SW16G22   29.68S WCI  17
ESTHERVILLE    CLOUDY    26  25  96 SW14      29.61F FOG     WCI  14
6HR MIN TEMP:  25; 6HR MAX TEMP:  29;

FORT DODGE *   CLOUDY    28  25  86 SW10      29.69R WCI  19
MASON CITY     CLOUDY    28  26  92 SW17      29.68R WCI  16
6HR MIN TEMP:  27; 6HR MAX TEMP:  32;

FOREST CITY *  CLOUDY    28  28 100 SW13      29.65S WCI  18
IOWA FALLS *   CLOUDY    30  28  93 SW14      29.70S WCI  20
$$

IAZ007>011-017>019-026>030-037>042-050>054-066-250700-
   NORTHEAST IOWA

CITY           SKY/WX    TMP DP  RH WIND       PRES   REMARKS
CEDAR RAPIDS   CLOUDY    32  29  88 W13       29.72R WCI  22
6HR MIN TEMP:  31; 6HR MAX TEMP:  34;

CHARLES CITY * CLOUDY    28  30 100 W13G21    29.68R WCI  18
CLINTON *      CLOUDY    34  27  75 W14       29.75R WCI  24
DECORAH *      CLOUDY    32  28  86 W9G17     29.64S WCI  24
DUBUQUE        CLOUDY    32  28  85 W16       29.68R WCI  21
6HR MIN TEMP:  32; 6HR MAX TEMP:  34;

MONTICELLO *   CLOUDY    32  30  93 W15       29.71R WCI  22
OELWEIN *      CLOUDY    32  30  93 W15       29.69S WCI  22
WATERLOO       MIX PCPN  30  28  92 W7        29.70R WCI  23
6HR MIN TEMP:  30; 6HR MAX TEMP:  34; 6HR PCP: TRACE;

$$

IAZ064-065-067-068-078-250700-
   EAST CENTRAL IOWA

CITY           SKY/WX    TMP DP  RH WIND       PRES   REMARKS
DAVENPORT      CLOUDY    33  29  85 W12       29.74R WCI  24
6HR MIN TEMP:  33; 6HR MAX TEMP:  36;

IOWA CITY      CLOUDY    33  29  85 W10       29.76S WCI  25
6HR MIN TEMP:  33; 6HR MAX TEMP:  36; 6HR PCP: TRACE;

MT. PLEASANT * CLOUDY    33  29  84 SW13      29.78R WCI  24
MUSCATINE *    CLOUDY    36  28  75 W15       29.77S WCI  26
QUAD CITIES    CLOUDY    35  29  78 W12       29.74R WCI  27
6HR MIN TEMP:  35; 6HR MAX TEMP:  37;

$$

IAZ062-063-075>077-085>089-095>099-250700-
   SOUTHEAST IOWA

CITY           SKY/WX    TMP DP  RH WIND       PRES   REMARKS
BURLINGTON     CLOUDY    35  29  78 W10       29.77S WCI  27
6HR MIN TEMP:  35; 6HR MAX TEMP:  37;

FAIRFIELD *    CLOUDY    32  28  86 W15       29.77S WCI  22
FORT MADISON * CLOUDY    36  30  80 SW7       29.79S WCI  30
KEOKUK *       CLOUDY    36  30  80 SW13      29.79S WCI  27
OSKALOOSA *    CLOUDY    32  29  90 W15       29.77R WCI  21
CENTERVILLE *  CLOUDY    32  32 100 SW12      29.79S WCI  23
OTTUMWA        CLOUDY    32  29  88 SW17      29.76S WCI  21
6HR MIN TEMP:  32; 6HR MAX TEMP:  35;

WASHINGTON *   CLOUDY    34  32  93 SW15      29.76S WCI  24
$$

ABBREVIATIONS USED IN REMARKS
   TC - TEMPERATURES IN CELSIUS
  WCI - WIND CHILL INDEX
   HX - HEAT INDEX
  VSB - VISIBILITY
$$



USA.gov is the U.S. government's official web portal to all federal, state and local government web resources and services.